Weather History for McAllen, TX

Change the Weather History Date:

Monday, December 10, 2012

  Actual Average Record
Temperature  
Mean Temperature 64 °F 63 °F  
Max Temperature 75 °F 73 °F 88 °F (1971)
Min Temperature 53 °F 53 °F 28 °F (1915)
Degree Days  
Heating Degree Days 1 5  
Month to date heating degree days 1 45  
Since 1 July heating degree days 16 105  
Cooling Degree Days 0 3  
Month to date cooling degree days 90 32  
Year to date cooling degree days 5179 4401  
Growing Degree Days 14 (Base 50)    
Moisture  
Dew Point 46 °F    
Average Humidity 57    
Maximum Humidity 93    
Minimum Humidity 21    
Precipitation  
Precipitation 0.00 in 0.04 in 1.66 in (2011)
Month to date precipitation T 0.34  
Year to date precipitation 17.47 21.35  
Sea Level Pressure  
Sea Level Pressure 29.97 in    
Wind  
Wind Speed 11 mph (North)    
Max Wind Speed 37 mph    
Max Gust Speed 44 mph    
Visibility 7 miles    
Events      
T = Trace of Precipitation, MM = Missing Value Source: NWS Daily Summary

Daily Weather History Graph

Daily Weather History Graph

Search for Another Location

Airport:

Trip Planner

Search our weather history database for the weather conditions in past years. The results will help you decide how hot, cold, wet, or windy it might be!

Date:

Astronomy

Dec. 10, 2012 Rise Set
Actual Time 7:09 AM CST 5:42 PM CST
Civil Twilight 6:44 AM CST 6:07 PM CST
Nautical Twilight 6:16 AM CST 6:36 PM CST
Astronomical Twilight 5:47 AM CST 7:04 PM CST
Moon 4:05 AM CST (12/10) 3:24 PM CST (12/10)
Length of Visible Light 11h 22m
Length of Day
10h 32m
Waning Crescent, 10% of the Moon is Illuminated
Dec 10
Waning Crescent
Dec 13
New
Dec 19
First Quarter
Dec 28
Full
Jan 4
Last Quarter

Hourly Weather History & Observations

Time (CST) Temp. Dew Point Humidity Pressure Visibility Wind Dir Wind Speed Gust Speed Precip Events Conditions
12:53 AM 75.0 °F 69.1 °F 82% 29.79 in 8.0 mi South 8.1 mph - N/A   Clear
1:53 AM 73.0 °F 69.1 °F 87% 29.78 in 7.0 mi South 10.4 mph - N/A   Clear
2:53 AM 72.0 °F 69.1 °F 91% 29.78 in 6.0 mi South 5.8 mph - N/A   Clear
3:53 AM 71.1 °F 68.0 °F 90% 29.78 in 5.0 mi SSE 4.6 mph - N/A   Clear
4:53 AM 70.0 °F 66.9 °F 90% 29.79 in 4.0 mi Calm Calm - N/A   Clear
5:53 AM 69.1 °F 66.0 °F 90% 29.83 in 4.0 mi NW 6.9 mph - N/A   Clear
6:01 AM 69.8 °F 66.2 °F 88% 29.83 in 3.0 mi West 3.5 mph - N/A   Partly Cloudy
6:53 AM 70.0 °F 66.9 °F 90% 29.88 in 4.0 mi NNW 8.1 mph - N/A   Mostly Cloudy
7:02 AM 69.8 °F 66.2 °F 88% 29.89 in 2.5 mi North 11.5 mph - N/A   Mostly Cloudy
7:14 AM 69.8 °F 66.2 °F 88% 29.90 in 2.5 mi North 10.4 mph - N/A   Mostly Cloudy
7:25 AM 69.8 °F 68.0 °F 94% 29.91 in 2.5 mi North 9.2 mph - N/A   Mostly Cloudy
7:30 AM 69.8 °F 66.2 °F 88% 29.92 in 2.5 mi North 35.7 mph 43.7 mph N/A   Mostly Cloudy
7:42 AM 60.8 °F 55.4 °F 82% 29.94 in 2.5 mi North 25.3 mph 39.1 mph N/A   Haze
7:49 AM 60.8 °F 53.6 °F 77% 29.95 in 2.5 mi North 29.9 mph 41.4 mph N/A   Haze
7:53 AM 61.0 °F 53.1 °F 75% 29.95 in 2.5 mi North 23.0 mph 41.4 mph N/A   Haze
8:00 AM 60.8 °F 53.6 °F 77% 29.96 in 10.0 mi North 27.6 mph 35.7 mph N/A   Overcast
8:53 AM 60.1 °F 46.9 °F 62% 30.02 in 10.0 mi North 24.2 mph 36.8 mph N/A   Overcast
9:15 AM 59.0 °F 44.6 °F 59% 30.05 in 10.0 mi North 23.0 mph 36.8 mph N/A   Overcast
9:53 AM 59.0 °F 41.0 °F 51% 30.06 in 10.0 mi North 20.7 mph 28.8 mph N/A   Overcast
10:53 AM 57.0 °F 35.1 °F 44% 30.09 in 10.0 mi North 19.6 mph 31.1 mph N/A   Overcast
11:53 AM 57.0 °F 28.9 °F 34% 30.09 in 10.0 mi NNW 19.6 mph 28.8 mph N/A   Overcast
12:53 PM 57.9 °F 27.0 °F 31% 30.07 in 10.0 mi NNW 18.4 mph 25.3 mph N/A   Overcast
1:53 PM 61.0 °F 27.0 °F 27% 30.05 in 10.0 mi North 13.8 mph - N/A   Overcast
2:53 PM 61.0 °F 24.1 °F 24% 30.04 in 10.0 mi North 16.1 mph 23.0 mph N/A   Overcast
3:53 PM 62.1 °F 23.0 °F 22% 30.03 in 10.0 mi North 10.4 mph - N/A   Clear
4:53 PM 61.0 °F 23.0 °F 23% 30.04 in 10.0 mi NNW 12.7 mph - N/A   Clear
5:53 PM 59.0 °F 24.1 °F 26% 30.05 in 10.0 mi NNW 5.8 mph - N/A   Clear
6:53 PM 57.0 °F 25.0 °F 29% 30.06 in 10.0 mi NNW 8.1 mph - N/A   Clear
7:53 PM 55.9 °F 25.0 °F 30% 30.08 in 10.0 mi NNW 4.6 mph - N/A   Clear
8:53 PM 55.0 °F 25.0 °F 31% 30.10 in 10.0 mi NNE 8.1 mph - N/A   Clear
9:53 PM 55.0 °F 25.0 °F 31% 30.11 in 10.0 mi Calm Calm - N/A   Clear
10:53 PM 54.0 °F 25.0 °F 33% 30.11 in 10.0 mi NNE 3.5 mph - N/A   Clear
11:53 PM 53.1 °F 26.1 °F 35% 30.11 in 10.0 mi NNE 4.6 mph - N/A   Clear